GRBBeta
1 60237U 24128C 24263.58602363 .00007254 00000-0 62565-3 0 9990
2 60237 61.9926 273.5331 0017924 339.4332 20.6033 14.97975383 10738
Curium One
1 60242U 24128H 24263.42145017 .00010820 00000-0 93354-3 0 9990
2 60242 61.9834 274.3062 0018913 325.4193 34.5664 14.97579982 10718
ROBUSTA-3A
1 60243U 24128J 24263.43111335 .00010873 00000-0 94429-3 0 9990
2 60243 61.9897 274.4113 0017249 320.4068 39.5759 14.97343782 10710
CatSat
1 60246U 24125J 24263.64875349 .00014344 00000-0 62632-3 0 9993
2 60246 97.2945 115.4238 0049707 306.4839 53.1823 15.21090776 9885
SR-0 DemoSAT
1 60455U 24147B 24263.85493110 .00241517 00000-0 47419-2 0 9993
2 60455 37.3775 82.6468 0021782 301.1180 58.7447 15.45310196 5333
Binar 4
1 60952U 98067WS 24262.07641569 .00312162 00000-0 41554-2 0 9992
2 60952 51.6360 214.7413 0008951 20.1328 340.0015 15.56507040 3061
CosmoGirlSat
1 60953U 98067WT 24263.56311061 .00115406 00000-0 16773-2 0 9996
2 60953 51.6373 207.4184 0010874 20.8234 339.3198 15.54841169 3299
Sakura
1 60954U 98067WU 24263.23798183 .00135420 00000-0 19246-2 0 9991
2 60954 51.6368 208.9962 0010668 21.0856 339.0573 15.55368617 3240
Binar 2
1 60956U 98067WW 24262.14063217 .00184680 00000-0 25471-2 0 9994
2 60956 51.6329 214.4148 0009466 19.5723 340.5630 15.56003247 3063
Binar 3
1 60957U 98067WX 24263.22778076 .00195627 00000-0 25662-2 0 9996
2 60957 51.6352 208.9273 0008319 25.0673 335.0721 15.57322181 5221
/EX
1
0
SB KEPS @ AMSAT $ORB24257.1
2Line Orbital Elements 24257.AMSAT
QST de W1STR
AMSAT Orbital Elements for Amateur Satellites in TLE Format
>From Orbital Analysis Office
New England Sci-Tech STEM Education Center
Natick, MA September 13, 2024
To all radio amateurs
These element sets describe the orbits of various satellites
in use by the amateur radio community. For details see:
www.amsat.org/keplerian-elements-formats/
A daily update of element sets is available at:
www.amsat.org/tle/daily-bulletin.txt
or without bulletin text:
www.amsat.org/tle/dailytle.txt
AO-07
1 07530U 74089B 24256.54294274 -.00000012 00000-0 21616-3 0 9992
2 07530 101.9855 252.0277 0011870 278.2862 212.2683 12.53679338279989
UO-11
1 14781U 84021B 24256.90504166 .00007138 00000-0 79504-3 0 9993
2 14781 97.7143 223.6158 0009241 138.1136 222.0789 14.87353366182524
AO-27
1 22825U 93061C 24256.40760271 .00000674 00000-0 27582-3 0 9998
2 22825 98.7800 310.0602 0008513 176.7164 183.4075 14.30578231615086
FO-29
1 24278U 96046B 24256.51413774 .00000234 00000-0 27657-3 0 9998
2 24278 98.5794 179.7174 0349463 322.2371 35.4703 13.53209645386245
NOAA-15
1 25338U 98030A 24256.83444767 .00000908 00000-0 39281-3 0 9996
2 25338 98.5649 282.1188 0011376 71.4478 288.7938 14.26705364369936
GO-32
1 25397U 98043D 24256.92198934 .00000659 00000-0 30636-3 0 9995
2 25397 98.9319 224.9968 0000146 255.1837 104.9325 14.24120957360120
ISS
1 25544U 98067A 24256.83258804 .00038544 00000-0 70362-3 0 9992
2 25544 51.6364 241.2184 0007518 344.4386 15.6370 15.49004202472149
NO-44
1 26931U 01043C 24256.62327549 .00001272 00000-0 51035-3 0 9995
2 26931 67.0498 105.6486 0007698 267.8552 92.1668 14.31370241198468
SO-50
1 27607U 02058C 24256.54535232 .00007914 00000-0 10629-2 0 9996
2 27607 64.5561 312.9215 0026432 63.6445 296.7369 14.79643343169450
CO-55
1 27844U 03031E 24256.75025998 .00002426 00000-0 10862-2 0 9999
2 27844 98.6798 262.5769 0008529 248.1166 111.9106 14.23462518100278
CO-57
1 27848U 03031J 24256.43825160 .00001506 00000-0 68943-3 0 9999
2 27848 98.6830 262.4634 0008353 268.0111 92.0111 14.22870197 99946
RS-22
1 27939U 03042A 24256.81187450 .00011012 00000-0 18162-2 0 9997
2 27939 98.3017 54.4831 0012466 140.3789 325.8165 14.70582569121153
NOAA-18
1 28654U 05018A 24256.78430021 .00001237 00000-0 68245-3 0 9994
2 28654 98.8690 333.0054 0014510 171.2693 188.8734 14.13327438995632
CO-58
1 28895U 05043F 24256.34727958 .00006601 00000-0 11443-2 0 9996
2 28895 98.2128 32.3941 0016168 83.1059 277.1984 14.68507755 7243
CO-65
1 32785U 08021C 24256.88720012 .00020745 00000-0 17354-2 0 9993
2 32785 97.7626 221.6089 0011950 41.0842 319.1278 14.98442667888676
AAUSAT2
1 32788U 08021F 24256.52356293 .00149941 00000-0 60579-2 0 9990
2 32788 97.5998 237.3947 0004597 165.5883 194.5486 15.24086381891691
CO-66
1 32791U 08021J 24256.89319462 .00038359 00000-0 25687-2 0 9992
2 32791 97.6978 227.7617 0006100 42.3639 317.8059 15.06774272889791
RS-30
1 32953U 08025A 24256.87579456 .00000061 00000-0 36953-3 0 9993
2 32953 82.5047 34.9296 0018620 273.0463 86.8486 12.43147920740010
PRISM
1 33493U 09002B 24256.74436732 .00152404 00000-0 57562-2 0 9991
2 33493 98.1951 312.2665 0009545 301.7484 58.2822 15.26302160852370
NOAA-19
1 33591U 09005A 24256.81905903 .00000785 00000-0 44388-3 0 9999
2 33591 99.0389 313.5138 0014445 48.6680 311.5732 14.13115545804009
SRMSAT
1 37841U 11058D 24256.58027760 .00001332 00000-0 58300-3 0 9990
2 37841 19.9734 348.1755 0011787 336.5860 51.6259 14.11206109667143
RS-40
1 38735U 12041C 24256.85842797 .00000064 00000-0 39231-3 0 9994
2 38735 82.4728 115.2330 0018039 29.8678 330.3427 12.42615402550161
ZACUBE-1
1 39417U 13066B 24256.76093391 .00028756 00000-0 28474-2 0 9992
2 39417 97.7412 210.8813 0047216 228.4285 131.2882 14.90944992584621
Delfi-N3xt
1 39428U 13066N 24256.67094371 .00038472 00000-0 46325-2 0 9994
2 39428 97.8317 172.7909 0098131 163.2864 197.1621 14.80322565579206
GOMX-1
1 39430U 13066Q 24256.84487804 .00010887 00000-0 17722-2 0 9992
2 39430 97.7186 125.9054 0137554 334.6719 24.7783 14.65034903575871
LO-74
1 39440U 13066AA 24256.83556130 .00029552 00000-0 33318-2 0 9999
2 39440 97.8158 198.6985 0067450 349.4394 10.5400 14.84864617582536
AO-73
1 39444U 13066AE 24256.87442215 .00023562 00000-0 21500-2 0 9990
2 39444 97.7261 214.3690 0045248 206.3163 153.5758 14.94286259583782
DTUSAT-2
1 40030U 14033W 24256.84665805 .00035128 00000-0 27765-2 0 9997
2 40030 98.0170 211.7619 0008273 223.8306 136.2261 15.00534225556346
EO-80
1 40032U 14033Y 24256.81320552 .00033706 00000-0 26638-2 0 9991
2 40032 98.0099 211.7062 0008161 186.0692 174.0433 15.00550123556328
XW-2C
1 40906U 15049H 24256.81799802 .00102802 00000-0 17414-2 0 9993
2 40906 97.4739 276.3581 0005167 8.5233 351.6105 15.51161430498012
XW-2D
1 40907U 15049J 24256.79512382 .00270020 00000-0 26536-2 0 9990
2 40907 97.4650 280.1124 0001645 2.3387 357.7880 15.65163489498322
LILACSAT-2
1 40908U 15049K 24256.78121853 .00039923 00000-0 14128-2 0 9998
2 40908 97.5253 266.2659 0013058 51.0511 309.1890 15.28955778496860
XW-2B
1 40911U 15049N 24256.81553558 .00194726 00000-0 20542-2 0 9997
2 40911 97.4629 280.0589 0002015 10.2245 349.9054 15.63596925498183
IO-86
1 40931U 15052B 24231.70395842 .00002296 00000-0 22250-3 0 9993
2 40931 5.9997 265.9807 0013402 250.6059 109.2619 14.78018769480834
ChubuSat-2
1 41338U 16012B 24256.19904531 .00014049 00000-0 83804-3 0 9994
2 41338 30.9993 190.2001 0010296 25.9555 334.1598 15.09920891470756
